GSAT0101 (GALILEO-PFM) 1 37846U 11060A 25352.76673598 -.00000075 00000+0 00000+0 0 9995 2 37846 57.0514 346.6564 0003180 319.1021 40.8874 1.70475824 88044 GSAT0102 (GALILEO-FM2) 1 37847U 11060B 25352.38762655 -.00000076 00000+0 00000+0 0 9998 2 37847 57.0522 346.6671 0005099 311.9548 220.8374 1.70476030 88043 GSAT0103 (GALILEO-FM3) 1 38857U 12055A 25352.22027178 -.00000007 00000+0 00000+0 0 9996 2 38857 55.6954 106.5161 0002855 269.0808 90.8455 1.70473412 81920 GSAT0201 (GALILEO 5) 1 40128U 14050A 25352.85663473 -.00000058 00000+0 00000+0 0 9996 2 40128 49.0697 280.8143 1648519 172.5106 190.3447 1.85519721 74978 GSAT0202 (GALILEO 6) 1 40129U 14050B 25352.57387135 -.00000059 00000+0 00000+0 0 9995 2 40129 49.0858 279.9095 1649125 173.2442 189.3393 1.85520466 77135 GSAT0203 (GALILEO 7) 1 40544U 15017A 25351.37165596 -.00000079 00000+0 00000+0 0 9994 2 40544 56.8452 346.5536 0006477 273.4606 86.4809 1.70476110 66108 GSAT0204 (GALILEO 8) 1 40545U 15017B 25354.56005586 -.00000070 00000+0 00000+0 0 9992 2 40545 56.8522 346.4847 0006133 266.5447 93.3948 1.70475697 29206 GSAT0205 (GALILEO 9) 1 40889U 15045A 25351.98227854 .00000059 00000+0 00000+0 0 9997 2 40889 55.0015 226.6133 0005988 39.6119 320.5359 1.70473246 63920 GSAT0206 (GALILEO 10) 1 40890U 15045B 25352.78953022 .00000064 00000+0 00000+0 0 9997 2 40890 55.0004 226.5860 0004220 42.9195 317.2206 1.70473154 63961 GSAT0209 (GALILEO 12) 1 41174U 15079A 25351.78437511 -.00000009 00000+0 00000+0 0 9999 2 41174 55.7156 106.2426 0002468 347.1145 12.8381 1.70474581 61685 GSAT0208 (GALILEO 11) 1 41175U 15079B 25354.35088306 -.00000002 00000+0 00000+0 0 9993 2 41175 55.7157 106.1693 0001807 359.1842 0.7815 1.70474393 62146 GSAT0211 (GALILEO 14) 1 41549U 16030A 25348.02255207 .00000028 00000+0 00000+0 0 9996 2 41549 55.1518 226.7881 0004070 16.5595 343.5367 1.70473201 59512 GSAT0210 (GALILEO 13) 1 41550U 16030B 25352.97267031 .00000065 00000+0 00000+0 0 9996 2 41550 55.1496 226.6499 0000791 227.6007 132.5002 1.70473668 59599 GSAT0207 (GALILEO 15) 1 41859U 16069A 25354.42402807 -.00000002 00000+0 00000+0 0 9996 2 41859 55.3864 106.0375 0002388 318.3578 41.5905 1.70474490 56357 GSAT0212 (GALILEO 16) 1 41860U 16069B 25354.27767728 -.00000003 00000+0 00000+0 0 9998 2 41860 55.3840 106.0369 0002058 19.0026 340.9707 1.70474720 56603 GSAT0213 (GALILEO 17) 1 41861U 16069C 25351.71231134 -.00000009 00000+0 00000+0 0 9998 2 41861 55.3850 106.1156 0002590 282.1972 77.7328 1.70474994 56421 GSAT0214 (GALILEO 18) 1 41862U 16069D 25351.85831770 -.00000009 00000+0 00000+0 0 9996 2 41862 55.3830 106.1044 0001542 289.1766 70.7658 1.70474854 56558 GSAT0215 (GALILEO 19) 1 43055U 17079A 25352.34856720 .00000062 00000+0 00000+0 0 9999 2 43055 55.1282 226.4832 0001233 345.8587 14.2435 1.70474068 49906 GSAT0216 (GALILEO 20) 1 43056U 17079B 25353.81301998 .00000069 00000+0 00000+0 0 9992 2 43056 55.1281 226.4428 0002368 323.7267 36.3665 1.70474153 49946 GSAT0217 (GALILEO 21) 1 43057U 17079C 25352.27398022 .00000061 00000+0 00000+0 0 9998 2 43057 55.1266 226.4833 0002798 348.1017 11.9971 1.70474093 49909 GSAT0218 (GALILEO 22) 1 43058U 17079D 25354.25377577 .00000070 00000+0 00000+0 0 9991 2 43058 55.1262 226.4264 0002773 307.8467 52.2377 1.70474115 49967 GSAT0221 (GALILEO 25) 1 43564U 18060A 25353.56977801 -.00000072 00000+0 00000+0 0 9996 2 43564 57.2264 346.6332 0006721 285.6827 74.2548 1.70475889 46101 GSAT0222 (GALILEO 26) 1 43565U 18060B 25352.02937321 -.00000076 00000+0 00000+0 0 9994 2 43565 57.2300 346.6777 0006088 265.4214 94.5238 1.70475645 46121 GSAT0219 (GALILEO 23) 1 43566U 18060C 25352.83709522 -.00000074 00000+0 00000+0 0 9992 2 43566 57.2292 346.6575 0005866 289.8664 70.0835 1.70475846 46114 GSAT0220 (GALILEO 24) 1 43567U 18060D 25353.64460383 -.00000072 00000+0 00000+0 0 9990 2 43567 57.2288 346.6359 0006070 288.3471 71.5983 1.70475932 46114 GSAT0223 (GALILEO 27) 1 49809U 21116A 25353.49777358 -.00000072 00000+0 00000+0 0 9997 2 49809 57.2179 346.5305 0004414 254.6091 105.9777 1.70476090 25129 GSAT0224 (GALILEO 28) 1 49810U 21116B 25354.19693263 -.00000070 00000+0 00000+0 0 9997 2 49810 57.2188 346.5104 0003747 259.7047 282.5653 1.70476091 25152 GSAT0225 (GALILEO 29) 1 59598U 24079A 25353.31979213 -.00000006 00000+0 00000+0 0 9996 2 59598 55.0052 106.1117 0002191 185.2617 171.1938 1.70475020 10248 GSAT0227 (GALILEO 30) 1 59600U 24079C 25353.50893098 -.00000006 00000+0 00000+0 0 9997 2 59600 55.0006 106.1050 0002924 116.8359 243.1562 1.70474897 10305 GSAT0232 (GALILEO 32) 1 61182U 24167A 25354.07311024 .00000070 00000+0 00000+0 0 9990 2 61182 55.2386 226.2297 0001878 206.8342 333.9154 1.70473657 7823 GSAT0226 (GALILEO 31) 1 61183U 24167B 25354.64183832 .00000072 00000+0 00000+0 0 9990 2 61183 55.2371 226.2196 0001120 107.1344 175.3163 1.70473754 7805 GALILEO A 1 67160U 25302A 25352.14605887 -.00000007 00000+0 00000+0 0 9994 2 67160 54.2406 107.2544 0008423 237.6458 122.2317 1.72906186 28 GALILEO B 1 67161U 25302B 25353.30200568 -.00000005 00000+0 00000+0 0 9999 2 67161 54.2272 107.1916 0004586 255.0301 104.8802 1.72972192 57